This demonstration page uses our WeatherBlox Daily Observations layout. Learn more.

Hourly Observations for June 20, 2017

Temp ( °F °C ) Dew Point ( °F °C ) Humidity (%) Winds ( mph kmh ) Pressure ( in mb ) Visibility ( mi km ) Precip ( " mm )
12:54 am 00:54 Clear 63 17.2 58 14.4 84 84 Calm 29.98 1015 10 16.0934 0 0
1:54 am 01:54 Clear 62 16.7 58 14.4 86 86 N 5 7 29.98 1015 10 16.0934 0 0
2:54 am 02:54 Clear 63 17.2 58 14.4 84 84 Calm 29.98 1015 10 16.0934 0 0
3:54 am 03:54 Clear 61 16.1 57 13.9 87 87 Calm 29.98 1015 10 16.0934 0 0
4:54 am 04:54 Clear 61 16.1 58 14.4 90 90 Calm 29.98 1015 10 16.0934 0 0
5:54 am 05:54 Clear 61 16.1 57 13.9 87 87 SSE 3 6 29.98 1015 10 16.0934 0 0
6:54 am 06:54 Sunny 61 16.1 57 13.9 87 87 S 5 7 29.98 1015 10 16.0934 0 0
7:54 am 07:54 Sunny 67 19.4 60 15.6 79 79 SSW 3 6 29.98 1015 10 16.0934 0 0
8:54 am 08:54 Sunny 75 23.9 60 15.6 60 60 WSW 7 11 29.98 1015 10 16.0934 0 0
9:54 am 09:54 Sunny 81 27.2 58 14.4 45 45 W 8 13 29.96 1015 10 16.0934 0 0
10:54 am 10:54 Sunny 84 28.9 59 15 43 43 W 9 15 29.95 1014 10 16.0934 0 0
11:54 am 11:54 Sunny 88 31.1 59 15 38 38 W 6 9 29.94 1014 10 16.0934 0 0
12:54 pm 12:54 Sunny 90 32.2 58 14.4 34 34 NNW 7 11 29.92 1013 10 16.0934 0 0
1:54 pm 13:54 Sunny 93 33.9 55 12.8 28 28 NW 9 15 29.91 1013 10 16.0934 0 0
2:54 pm 14:54 Sunny 94 34.4 57 13.9 29 29 NW 9 15 29.9 1012 10 16.0934 0 0
3:54 pm 15:54 Sunny 93 33.9 56 13.3 29 29 N 12 19 29.89 1012 10 16.0934 0 0
4:54 pm 16:54 Sunny 93 33.9 54 12.2 27 27 WNW 3 6 29.87 1012 10 16.0934 0 0
5:54 pm 17:54 Sunny 92 33.3 56 13.3 30 30 NNE 8 13 29.85 1011 10 16.0934 0 0
6:54 pm 18:54 Sunny 91 32.8 55 12.8 30 30 NE 7 11 29.84 1011 10 16.0934 0 0
7:54 pm 19:54 Sunny 87 30.6 57 13.9 36 36 ENE 9 15 29.85 1011 10 16.0934 0 0
8:54 pm 20:54 Sunny 84 28.9 56 13.3 38 38 E 7 11 29.86 1011 10 16.0934 0 0
9:54 pm 21:54 Clear 81 27.2 56 13.3 42 42 E 6 9 29.86 1011 10 16.0934 0 0
10:54 pm 22:54 Clear 80 26.7 58 14.4 47 47 ESE 8 13 29.87 1012 10 16.0934 0 0
11:54 pm 23:54 Clear 80 26.7 57 13.9 45 45 SE 15 24 29.85 1011 10 16.0934 0 0

Powered by AerisWeather